LiveATC.Net - Listen to live air traffic control over the Internet!


ICAO: KMCC  IATA: MCC   Airport: McClellan Airfield
City: Sacramento   State/Province: California
Country: United States   Continent: North America
KMCC METAR Weather: KMCC 201155Z AUTO 14004KT 6SM BR CLR 05/05 A3031 RMK AO2
KMCC Flight Activity (FlightAware)
KMCC Airport Info   (iFlightPlanner)
KMCC VFR Sectional Chart   (iFlightPlanner) 
KMCC IFR Low Altitude Chart   (iFlightPlanner) 
KMCC IFR High Altitude Chart   (iFlightPlanner) 

KMCC CTAF/Del/Gnd/Twr
Feed Status: UP   Listeners: 0
Listen in your browser - HTML5 player (in browser, HTML5)
Click here to listen with your own player (launches your MP3 player)
Archive Access: KMCC CTAF/Del/Gnd/Twr
FacilityFrequency
McClellan Clearance Delivery119.825
McClellan CTAF122.975
McClellan Ground (temp)118.650
McClellan Tower (temp)135.900

NOTICE

Unauthorized use prohibited. See LiveATC.net Terms of Service


Airport/ARTCC Code
Frequency Search
(e.g., 124.400, 128.75)
Site-wide search
 


Browse Feeds
Top 50 Feeds
HF Oceanic Feeds
Coverage Map
Bad Weather Areas

LiveATC FAQ
Offer LiveATC feed
Contact LiveATC.net
Press Inquiries

LiveATC on iPhone
LiveATC on Android

LiveATC Mobile
(Mobile browser)

ATC Audio Archives
Interesting Recordings

LiveATC Forums


Home Page
About LiveATC.net
Make a Donation
Terms of Use
Privacy Policy

Canadian Air Freqs

AIRMETs/SIGMETs

FAA Airport Status
NAS Status
Arrival Demand


Server Software By:
Icecast.org
Liquidsoap